Weather History for Albert Lea, MN

Change the Weather History Date:

Friday, October 5, 2012

  Actual Average Record
Temperature  
Mean Temperature 38 °F -  
Max Temperature 46 °F 63 °F 84 °F (2011)
Min Temperature 30 °F 40 °F 30 °F (2012)
Degree Days  
Heating Degree Days 27    
Moisture  
Dew Point 25 °F    
Average Humidity 59    
Maximum Humidity 86    
Minimum Humidity 34    
Precipitation  
Precipitation 0.00 in - - ()
Sea Level Pressure  
Sea Level Pressure 30.16 in    
Wind  
Wind Speed 9 mph (WNW)    
Max Wind Speed 18 mph    
Max Gust Speed 31 mph    
Visibility 10 miles    
Events      
Averages and records for this station are not official NWS values.
T = Trace of Precipitation, MM = Missing Value Source: NWS Daily Summary

Daily Weather History Graph

Daily Weather History Graph

Search for Another Location

Airport:

Trip Planner

Search our weather history database for the weather conditions in past years. The results will help you decide how hot, cold, wet, or windy it might be!

Date:

Astronomy

Oct. 05, 2012 Rise Set
Actual Time 7:16 AM CDT 6:46 PM CDT
Civil Twilight 6:47 AM CDT 7:15 PM CDT
Nautical Twilight 6:14 AM CDT 7:48 PM CDT
Astronomical Twilight 5:40 AM CDT 8:21 PM CDT
Moon 10:01 PM CDT (10/5) 12:33 PM CDT (10/5)
Length of Visible Light 12h 27m
Length of Day
11h 30m
Waning Gibbous, 74% of the Moon is Illuminated
Oct 5
Waning Gibbous
Oct 8
Last Quarter
Oct 15
New
Oct 21
First Quarter
Oct 29
Full

Hourly Weather History & Observations

Time (CDT) Temp. Windchill Dew Point Humidity Pressure Visibility Wind Dir Wind Speed Gust Speed Precip Events Conditions
12:12 AM 42.8 °F 38.6 °F 30.2 °F 61% 30.18 in 10.0 mi NW 6.9 mph 17.3 mph N/A   Overcast
12:33 AM 42.8 °F 36.6 °F 30.2 °F 61% 30.18 in 10.0 mi WNW 11.5 mph 16.1 mph N/A   Overcast
12:53 AM 42.8 °F 36.6 °F 30.2 °F 61% 30.18 in 10.0 mi WNW 11.5 mph 19.6 mph N/A   Overcast
1:12 AM 41.0 °F 35.8 °F 30.2 °F 65% 30.19 in 10.0 mi West 8.1 mph 16.1 mph N/A   Scattered Clouds
1:33 AM 39.2 °F 35.0 °F 30.2 °F 70% 30.19 in 10.0 mi West 5.8 mph - N/A   Clear
1:53 AM 39.2 °F 34.2 °F 30.2 °F 70% 30.19 in 10.0 mi West 6.9 mph - N/A   Mostly Cloudy
2:13 AM 37.4 °F 33.8 °F 30.2 °F 75% 30.19 in 10.0 mi West 4.6 mph - N/A   Mostly Cloudy
2:33 AM 37.4 °F 32.1 °F 30.2 °F 75% 30.19 in 10.0 mi West 6.9 mph - N/A   Mostly Cloudy
2:52 AM 37.4 °F 31.4 °F 30.2 °F 75% 30.18 in 10.0 mi WNW 8.1 mph - N/A   Mostly Cloudy
3:13 AM 37.4 °F 32.8 °F 30.2 °F 75% 30.17 in 10.0 mi West 5.8 mph - N/A   Mostly Cloudy
3:32 AM 35.6 °F 31.7 °F 30.2 °F 81% 30.17 in 10.0 mi West 4.6 mph - N/A   Scattered Clouds
3:53 AM 35.6 °F 30.7 °F 28.4 °F 75% 30.17 in 10.0 mi West 5.8 mph - N/A   Clear
4:13 AM 33.8 °F 29.6 °F 28.4 °F 81% 30.17 in 10.0 mi West 4.6 mph - N/A   Clear
4:33 AM 33.8 °F 28.6 °F 28.4 °F 81% 30.17 in 10.0 mi West 5.8 mph - N/A   Clear
4:53 AM 35.6 °F 29.9 °F 30.2 °F 81% 30.17 in 10.0 mi West 6.9 mph - N/A   Mostly Cloudy
5:12 AM 35.6 °F 30.7 °F 28.4 °F 75% 30.18 in 10.0 mi West 5.8 mph - N/A   Scattered Clouds
5:33 AM 33.8 °F 28.6 °F 26.6 °F 75% 30.17 in 10.0 mi West 5.8 mph - N/A   Clear
5:53 AM 33.8 °F 27.7 °F 26.6 °F 75% 30.18 in 10.0 mi West 6.9 mph - N/A   Clear
6:12 AM 32.0 °F 24.8 °F 26.6 °F 80% 30.18 in 10.0 mi West 8.1 mph - N/A   Clear
6:33 AM 32.0 °F 24.2 °F 26.6 °F 80% 30.17 in 10.0 mi WNW 9.2 mph - N/A   Clear
6:52 AM 32.0 °F 24.8 °F 26.6 °F 80% 30.17 in 10.0 mi WNW 8.1 mph - N/A   Clear
7:13 AM 30.2 °F 23.4 °F 26.6 °F 86% 30.17 in 10.0 mi WNW 6.9 mph - N/A   Clear
7:32 AM 32.0 °F 24.8 °F 26.6 °F 80% 30.17 in 10.0 mi WNW 8.1 mph - N/A   Clear
7:53 AM 32.0 °F 25.6 °F 26.6 °F 80% 30.17 in 10.0 mi WNW 6.9 mph - N/A   Clear
8:13 AM 33.8 °F 27.7 °F 26.6 °F 75% 30.18 in 10.0 mi WNW 6.9 mph - N/A   Clear
8:32 AM 33.8 °F 27.0 °F 26.6 °F 75% 30.17 in 10.0 mi WNW 8.1 mph 16.1 mph N/A   Clear
8:53 AM 35.6 °F 28.6 °F 26.6 °F 70% 30.18 in 10.0 mi WNW 9.2 mph 16.1 mph N/A   Clear
9:13 AM 35.6 °F 27.5 °F 26.6 °F 70% 30.18 in 10.0 mi WNW 11.5 mph 17.3 mph N/A   Clear
9:32 AM 35.6 °F 28.0 °F 26.6 °F 70% 30.19 in 10.0 mi WNW 10.4 mph 19.6 mph N/A   Clear
9:53 AM 37.4 °F 30.3 °F 26.6 °F 65% 30.18 in 10.0 mi WNW 10.4 mph 20.7 mph N/A   Clear
10:13 AM 37.4 °F 28.2 °F 26.6 °F 65% 30.18 in 10.0 mi West 16.1 mph 21.9 mph N/A   Clear
10:32 AM 39.2 °F 31.6 °F 24.8 °F 56% 30.18 in 10.0 mi WNW 12.7 mph 19.6 mph N/A   Clear
10:53 AM 39.2 °F 32.0 °F 24.8 °F 56% 30.17 in 10.0 mi WNW 11.5 mph 19.6 mph N/A   Clear
11:32 AM 42.8 °F 36.2 °F 23.0 °F 46% 30.17 in 10.0 mi WNW 12.7 mph 21.9 mph N/A   Clear
11:53 AM 42.8 °F 36.6 °F 21.2 °F 42% 30.17 in 10.0 mi West 11.5 mph 18.4 mph N/A   Clear
12:13 PM 42.8 °F 37.0 °F 21.2 °F 42% 30.16 in 10.0 mi WNW 10.4 mph 20.7 mph N/A   Clear
12:32 PM 42.8 °F 36.6 °F 19.4 °F 39% 30.16 in 10.0 mi WNW 11.5 mph 18.4 mph N/A   Clear
12:53 PM 42.8 °F 35.8 °F 21.2 °F 42% 30.17 in 10.0 mi West 13.8 mph 24.2 mph N/A   Clear
1:32 PM 42.8 °F 35.8 °F 21.2 °F 42% 30.15 in 10.0 mi WNW 13.8 mph 21.9 mph N/A   Clear
1:53 PM 42.8 °F 35.4 °F 21.2 °F 42% 30.15 in 10.0 mi WNW 15.0 mph 21.9 mph N/A   Clear
2:12 PM 42.8 °F 36.2 °F 21.2 °F 42% 30.15 in 10.0 mi WNW 12.7 mph 21.9 mph N/A   Clear
2:33 PM 44.6 °F 40.2 °F 21.2 °F 39% 30.15 in 10.0 mi WNW 8.1 mph 21.9 mph N/A   Clear
2:53 PM 44.6 °F 37.4 °F 21.2 °F 39% 30.14 in 10.0 mi WNW 16.1 mph 24.2 mph N/A   Scattered Clouds
3:12 PM 46.4 °F 41.5 °F 19.4 °F 34% 30.14 in 10.0 mi West 10.4 mph 23.0 mph N/A   Clear
3:33 PM 46.4 °F 40.7 °F 19.4 °F 34% 30.13 in 10.0 mi West 12.7 mph 23.0 mph N/A   Clear
3:53 PM 46.4 °F 40.1 °F 19.4 °F 34% 30.13 in 10.0 mi WNW 15.0 mph 23.0 mph N/A   Clear
4:13 PM 46.4 °F 41.9 °F 19.4 °F 34% 30.13 in 10.0 mi WNW 9.2 mph 21.9 mph N/A   Clear
4:33 PM 46.4 °F 40.1 °F 19.4 °F 34% 30.13 in 10.0 mi WNW 15.0 mph 24.2 mph N/A   Clear
4:53 PM 46.4 °F 41.5 °F 19.4 °F 34% 30.13 in 10.0 mi WNW 10.4 mph 24.2 mph N/A   Clear
5:13 PM 46.4 °F 39.2 °F 21.2 °F 37% 30.12 in 10.0 mi WNW 18.4 mph 31.1 mph N/A   Clear
5:33 PM 46.4 °F 40.7 °F 21.2 °F 37% 30.12 in 10.0 mi WNW 12.7 mph 21.9 mph N/A   Clear
5:52 PM 44.6 °F 39.7 °F 21.2 °F 39% 30.13 in 10.0 mi WNW 9.2 mph 23.0 mph N/A   Clear
6:13 PM 44.6 °F 39.2 °F 21.2 °F 39% 30.12 in 10.0 mi WNW 10.4 mph 18.4 mph N/A   Clear
6:33 PM 42.8 °F 38.0 °F 23.0 °F 46% 30.13 in 10.0 mi NW 8.1 mph 18.4 mph N/A   Clear
6:52 PM 41.0 °F 34.7 °F 24.8 °F 53% 30.14 in 10.0 mi NNW 10.4 mph 17.3 mph N/A   Clear
7:13 PM 39.2 °F 32.0 °F 24.8 °F 56% 30.15 in 10.0 mi NW 11.5 mph 16.1 mph N/A   Clear
7:33 PM 39.2 °F 32.0 °F 24.8 °F 56% 30.16 in 10.0 mi NW 11.5 mph 19.6 mph N/A   Clear
7:53 PM 37.4 °F 31.4 °F 24.8 °F 60% 30.16 in 10.0 mi NW 8.1 mph - N/A   Clear
8:13 PM 37.4 °F 29.8 °F 24.8 °F 60% 30.16 in 10.0 mi NW 11.5 mph 16.1 mph N/A   Clear
8:32 PM 37.4 °F 31.4 °F 24.8 °F 60% 30.17 in 10.0 mi NW 8.1 mph - N/A   Clear
8:53 PM 37.4 °F 32.1 °F 24.8 °F 60% 30.17 in 10.0 mi WNW 6.9 mph - N/A   Clear
9:13 PM 37.4 °F 30.3 °F 24.8 °F 60% 30.17 in 10.0 mi NW 10.4 mph 16.1 mph N/A   Mostly Cloudy
9:32 PM 39.2 °F 30.2 °F 24.8 °F 56% 30.17 in 10.0 mi NW 17.3 mph 27.6 mph N/A   Overcast
9:53 PM 37.4 °F - 24.8 °F 60% 30.18 in 10.0 mi Calm Calm - N/A   Overcast
10:32 PM 37.4 °F 29.3 °F 23.0 °F 56% 30.18 in 10.0 mi NW 12.7 mph 21.9 mph N/A   Overcast
10:53 PM 37.4 °F 29.3 °F 24.8 °F 60% 30.18 in 10.0 mi NW 12.7 mph 20.7 mph N/A   Overcast
11:33 PM 37.4 °F 28.9 °F 23.0 °F 56% 30.16 in 10.0 mi NW 13.8 mph 20.7 mph N/A   Overcast
11:53 PM 37.4 °F 29.8 °F 24.8 °F 60% 30.16 in 10.0 mi NW 11.5 mph 23.0 mph N/A   Overcast